[[{"header":{"parameterUnit":"m.s-1","parameterCategory":1,"la1":30.2991,"la2":30.254,"lo1":-89.0895,"lo2":-89.0444,"dy":0.0017,"dx":0.0017,"nx":28,"ny":28,"refTime":"2025-05-31T03:00:00:Z","depth":0,"parameterNumber":2,"parameterNumberName":"U-component_of_WINDS"},"data":[0,0,0,0,0,0,0,0,0,0,0,0,0,0,0,0,0,0,0,0,0,0,0,0,0,0,0,0,0,0,0,0,0,0,0,0,0,0,0,0,0,0,0,0,0,0,0,0,0,0,0,0,0,0,0,0,0,0,-0.5487,-0.5487,0,-0.5482,-0.5482,-0.5482,-0.548,-0.548,-0.548,-0.548,-0.5473,-0.5473,-0.5473,0,0,0,0,0,0,0,0,0,0,0,0,0,-0.5493,-0.5492,-0.5487,-0.5487,-0.5487,-0.5482,-0.5482,-0.5482,-0.548,-0.548,-0.548,-0.548,-0.5474,-0.5473,-0.5473,0,0,0,0,0,0,0,0,0,0,0,0,0,-0.5489,-0.5492,-0.5487,-0.5485,-0.5485,-0.5482,-0.5482,-0.5482,-0.548,-0.548,-0.548,-0.548,-0.5474,-0.5473,-0.5473,-0.5471,0,0,-0.5472,-0.5472,0,0,0,0,0,0,0,0,-0.5489,-0.5489,-0.5485,-0.5485,-0.5485,-0.5482,-0.5482,-0.5479,-0.548,-0.5482,-0.548,-0.548,-0.5476,-0.5476,-0.5475,-0.5471,-0.5471,-0.5472,-0.5472,-0.5472,-0.5472,0,0,0,0,0,0,0,-0.549,-0.5489,-0.5485,-0.5485,-0.5485,-0.5484,-0.5484,-0.5481,-0.5479,-0.5482,-0.5481,-0.5481,-0.5476,-0.5475,-0.5475,-0.5471,-0.5472,-0.5472,-0.5472,-0.5472,-0.5467,-0.5468,0,0,0,0,0,0,-0.549,-0.5489,-0.5485,-0.5485,-0.5487,-0.5484,-0.5484,-0.5483,-0.5479,-0.5478,-0.5481,-0.5481,-0.5475,-0.5475,-0.5474,-0.5473,-0.5472,-0.5472,-0.5472,-0.5467,-0.5467,-0.5468,0,0,0,0,0,0,-0.5491,-0.549,-0.5485,-0.5487,-0.5487,-0.5484,-0.5483,-0.5483,-0.5482,-0.5479,-0.5478,-0.5481,-0.5475,-0.5475,-0.5473,-0.5473,-0.5472,-0.5471,-0.5467,-0.5467,-0.5468,-0.547,0,0,0,0,0,0,-0.5491,-0.549,-0.5489,-0.5487,-0.5486,-0.5484,-0.5483,-0.5483,-0.5482,-0.5481,-0.5478,-0.5477,-0.5475,-0.5473,-0.5472,-0.5472,-0.5471,-0.5467,-0.5467,-0.5467,-0.5469,-0.547,-0.547,0,0,0,0,0,-0.5491,-0.5489,-0.5489,-0.5489,-0.5485,-0.5484,-0.5483,-0.5482,-0.5481,-0.5481,-0.5479,-0.5477,-0.5473,-0.5473,-0.5472,-0.5472,-0.5467,-0.5467,-0.5467,-0.5469,-0.547,-0.547,0,0,0,0,0,0,-0.549,-0.5489,-0.5489,-0.5486,-0.5485,-0.5483,-0.5482,-0.5482,-0.548,-0.548,-0.5477,-0.5477,-0.5475,-0.5473,-0.5473,-0.5471,-0.547,-0.547,-0.5472,-0.5472,-0.5472,-0.5472,-0.5471,0,0,0,0,0,-0.549,-0.5489,-0.5488,-0.5486,-0.5485,-0.5484,-0.5483,-0.5482,-0.5481,-0.548,-0.5478,-0.5476,-0.5475,-0.5474,-0.5472,-0.547,-0.5469,-0.547,-0.547,-0.547,-0.5469,-0.547,-0.547,-0.5468,-0.5468,-0.5468,0,0,-0.5488,-0.5488,-0.5487,-0.5485,-0.5484,-0.5483,-0.5483,-0.5482,-0.5481,-0.5479,-0.5478,-0.5477,-0.5475,-0.5473,-0.5472,-0.5472,-0.547,-0.547,-0.547,-0.547,-0.547,-0.547,-0.547,-0.5468,-0.5468,-0.5468,0,0,-0.5485,-0.5485,-0.5484,-0.5484,-0.5483,-0.5482,-0.5482,-0.5481,-0.5481,-0.5479,-0.5479,-0.5478,-0.5475,-0.5474,-0.5473,-0.5473,-0.5472,-0.5473,-0.5473,-0.5474,-0.5474,-0.5474,-0.5474,-0.5474,-0.5473,-0.5473,-0.5473,0,-0.5484,-0.5482,-0.5483,-0.5482,-0.5482,-0.5482,-0.5481,-0.5481,-0.5479,-0.5479,-0.5479,-0.5477,-0.5475,-0.5474,-0.5475,-0.5474,-0.5474,-0.5472,-0.5474,-0.5474,-0.5474,-0.5474,-0.5474,-0.5473,-0.5473,-0.5473,-0.5473,0,-0.5481,-0.548,-0.5479,-0.5479,-0.5479,-0.5478,-0.5478,-0.5478,-0.5479,-0.5478,-0.5478,-0.5477,-0.5476,-0.5476,-0.5475,-0.5475,-0.5475,-0.5474,-0.5473,-0.5474,-0.5474,-0.5475,-0.5473,-0.5473,-0.5473,-0.5473,0,0,-0.5474,-0.5477,-0.5476,-0.5477,-0.5478,-0.5477,-0.5477,-0.5477,-0.5477,-0.5477,-0.5477,-0.5476,-0.5476,-0.5475,-0.5475,-0.5475,-0.5477,-0.5475,-0.5475,-0.5475,-0.5477,-0.5477,-0.5477,-0.5477,-0.5477,-0.5477,-0.5477,0,-0.5471,-0.5471,-0.5473,-0.5472,-0.5472,-0.5474,-0.5474,-0.5475,-0.5475,-0.5475,-0.5476,-0.5475,-0.5476,-0.5476,-0.5476,-0.5476,-0.5477,-0.5476,-0.5476,-0.5476,-0.5475,-0.5477,-0.5476,-0.5476,-0.5477,-0.5477,-0.5477,0,-0.5467,-0.5468,-0.5467,-0.547,-0.547,-0.547,-0.5471,-0.5471,-0.5473,-0.5473,-0.5474,-0.5475,-0.5475,-0.5476,-0.5476,-0.5476,-0.5477,-0.5477,-0.5477,-0.5476,-0.5476,-0.5475,-0.5476,-0.5476,-0.5477,-0.5477,-0.5477,0,-0.5462,-0.5464,-0.5464,-0.5464,-0.5467,-0.5467,-0.5469,-0.547,-0.5471,-0.5472,-0.5473,-0.5474,-0.5474,-0.5475,-0.5476,-0.5476,-0.5477,-0.5477,-0.5478,-0.5478,-0.5476,-0.5476,-0.5477,-0.5478,-0.5478,-0.5478,-0.5478,0,-0.5458,-0.5457,-0.5462,-0.5462,-0.5462,-0.5465,-0.5465,-0.5466,-0.5468,-0.5469,-0.5471,-0.5472,-0.5474,-0.5475,-0.5476,-0.5477,-0.5477,-0.5478,-0.5478,-0.5477,-0.5477,-0.5476,-0.5475,-0.5478,-0.5478,-0.5478,-0.5478,0,-0.5451,-0.5454,-0.5455,-0.5459,-0.546,-0.546,-0.5463,-0.5464,-0.5466,-0.5467,-0.5467,-0.547,-0.5472,-0.5474,-0.5475,-0.5476,-0.5477,-0.5478,-0.5477,-0.5477,-0.5477,-0.5476,-0.5476,-0.5476,-0.5478,-0.5478,-0.5478,0,-0.5448,-0.5448,-0.5452,-0.5453,-0.5455,-0.5456,-0.5457,-0.5461,-0.5462,-0.5465,-0.5466,-0.5468,-0.5469,-0.5472,-0.5474,-0.5476,-0.5477,-0.5477,-0.5477,-0.5476,-0.5476,-0.5476,-0.5476,-0.5476,-0.5476,-0.5476,-0.5476,0,-0.5441,-0.5443,-0.5445,-0.5448,-0.545,-0.5452,-0.5454,-0.5455,-0.5459,-0.5461,-0.5463,-0.5465,-0.5468,-0.547,-0.5473,-0.5475,-0.5476,-0.5476,-0.5476,-0.5475,-0.5474,-0.5474,-0.5476,-0.5476,-0.5476,-0.5476,-0.5476,-0.5476,-0.5435,-0.5436,-0.544,-0.5442,-0.5445,-0.5448,-0.5449,-0.5452,-0.5454,-0.5458,-0.546,-0.5462,-0.5466,-0.547,-0.5472,-0.5474,-0.5475,-0.5475,-0.5474,-0.5474,-0.5474,-0.5475,-0.5475,-0.5475,-0.5475,-0.5475,-0.5475,0,-0.5428,-0.5432,-0.5434,-0.5438,-0.5441,-0.5444,-0.5447,-0.5449,-0.5451,-0.5455,-0.5457,-0.5461,-0.5464,-0.5467,-0.5471,-0.5472,-0.5473,-0.5473,-0.5472,-0.5472,-0.5473,-0.5473,-0.5472,-0.5472,-0.5472,-0.5472,-0.5472,-0.5472,-0.5425,-0.5426,-0.5429,-0.5433,-0.5436,-0.5439,-0.5441,-0.5444,-0.5447,-0.5451,-0.5454,-0.5457,-0.5461,-0.5465,-0.5469,-0.547,-0.5471,-0.547,-0.5471,-0.5472,-0.5472,-0.5472,-0.5472,-0.547,-0.547,-0.547,-0.547,-0.547]},{"header":{"parameterUnit":"m.s-1","parameterCategory":1,"la1":30.2991,"la2":30.254,"lo1":-89.0895,"lo2":-89.0444,"dy":0.0017,"dx":0.0017,"nx":28,"ny":28,"refTime":"2025-05-31T03:00:00:Z","depth":0,"parameterNumber":3,"parameterNumberName":"V-component_of_WINDS"},"data":[0,0,0,0,0,0,0,0,0,0,0,0,0,0,0,0,0,0,0,0,0,0,0,0,0,0,0,0,0,0,0,0,0,0,0,0,0,0,0,0,0,0,0,0,0,0,0,0,0,0,0,0,0,0,0,0,0,0,2.827,2.8269,0,2.8192,2.8191,2.819,2.82,2.8201,2.8202,2.8204,2.8118,2.8115,2.8111,0,0,0,0,0,0,0,0,0,0,0,0,0,2.8422,2.8419,2.827,2.8269,2.8268,2.8192,2.8191,2.819,2.82,2.8201,2.8203,2.8204,2.8119,2.8115,2.8111,0,0,0,0,0,0,0,0,0,0,0,0,0,2.8351,2.8418,2.827,2.8264,2.8263,2.8193,2.8191,2.819,2.8199,2.8201,2.8203,2.8205,2.8121,2.8116,2.8111,2.804,0,0,2.8095,2.8092,0,0,0,0,0,0,0,0,2.8355,2.8346,2.8266,2.8264,2.8263,2.8208,2.8214,2.814,2.8199,2.8223,2.8204,2.8206,2.8146,2.8139,2.812,2.8036,2.8033,2.8094,2.8091,2.8089,2.8087,0,0,0,0,0,0,0,2.836,2.8349,2.8239,2.8265,2.8263,2.8263,2.8255,2.82,2.8175,2.8221,2.8222,2.8213,2.8146,2.8125,2.8118,2.8031,2.8094,2.809,2.8087,2.8085,2.7885,2.7883,0,0,0,0,0,0,2.8367,2.8353,2.8242,2.8237,2.8315,2.8259,2.825,2.8223,2.8175,2.817,2.8211,2.8213,2.8133,2.8124,2.8115,2.8029,2.8089,2.8084,2.8081,2.7888,2.7885,2.7883,0,0,0,0,0,0,2.8371,2.8357,2.8245,2.8295,2.8281,2.8254,2.8224,2.8221,2.82,2.8168,2.8163,2.8195,2.8134,2.8122,2.8059,2.8026,2.8082,2.8077,2.789,2.7887,2.7884,2.7856,0,0,0,0,0,0,2.8375,2.8358,2.8333,2.8294,2.8278,2.8191,2.8222,2.8218,2.8192,2.8194,2.8151,2.8146,2.8135,2.8067,2.8054,2.802,2.8073,2.7893,2.7889,2.7885,2.786,2.7852,2.7846,0,0,0,0,0,2.838,2.8327,2.8331,2.8318,2.8245,2.8189,2.818,2.817,2.8189,2.8162,2.8141,2.8147,2.8032,2.806,2.8046,2.801,2.7895,2.789,2.7885,2.7863,2.7854,2.7846,0,0,0,0,0,0,2.836,2.8322,2.8326,2.8259,2.8228,2.8191,2.8157,2.816,2.8121,2.8125,2.8112,2.8102,2.8038,2.8018,2.805,2.7939,2.7966,2.7958,2.7954,2.7945,2.7938,2.7943,2.8069,0,0,0,0,0,2.8348,2.8307,2.8276,2.8219,2.8204,2.8183,2.8158,2.8153,2.8119,2.8105,2.808,2.8045,2.8001,2.7972,2.793,2.7858,2.7848,2.7826,2.7819,2.7813,2.7806,2.7765,2.7754,2.7867,2.7867,2.7867,0,0,2.8322,2.8296,2.8271,2.8215,2.819,2.8146,2.8171,2.8124,2.8091,2.8098,2.8036,2.8017,2.7977,2.7909,2.7877,2.789,2.7773,2.7807,2.7803,2.7798,2.7759,2.7748,2.7739,2.7863,2.7864,2.7864,0,0,2.8252,2.8229,2.8179,2.8154,2.8117,2.8104,2.8092,2.8055,2.8043,2.7982,2.7985,2.7946,2.787,2.7842,2.7818,2.7738,2.7741,2.7725,2.7687,2.7648,2.7639,2.7631,2.7601,2.759,2.7718,2.7718,2.7718,0,2.8223,2.816,2.8153,2.8105,2.808,2.8086,2.8035,2.801,2.796,2.7942,2.7957,2.7863,2.7837,2.7762,2.7742,2.7723,2.7708,2.7728,2.7641,2.7633,2.7625,2.7597,2.7586,2.7716,2.7716,2.7716,2.7716,0,2.8126,2.8082,2.8046,2.7999,2.797,2.7921,2.7905,2.7876,2.7874,2.7859,2.7796,2.7765,2.7717,2.7699,2.7696,2.7623,2.7631,2.7644,2.7671,2.7613,2.7585,2.7575,2.7713,2.7714,2.7714,2.7715,0,0,2.8039,2.799,2.7977,2.7956,2.7916,2.788,2.7831,2.7786,2.776,2.7726,2.7683,2.762,2.7632,2.7604,2.7598,2.7563,2.7501,2.758,2.7579,2.7565,2.7417,2.7406,2.7394,2.7504,2.7502,2.75,2.7419,0,2.7963,2.7878,2.7871,2.7793,2.7751,2.7757,2.7714,2.7684,2.7668,2.7629,2.7612,2.7567,2.7587,2.757,2.7536,2.7515,2.747,2.7521,2.7462,2.746,2.7469,2.738,2.7368,2.7293,2.7409,2.7407,2.7406,0,2.7864,2.7828,2.7747,2.7713,2.7695,2.7656,2.7614,2.7577,2.7543,2.7534,2.7504,2.7503,2.745,2.7481,2.7408,2.7443,2.7418,2.7404,2.7401,2.7393,2.7428,2.7367,2.7269,2.7257,2.7389,2.7391,2.7392,0,2.7806,2.7738,2.7681,2.7663,2.7622,2.7594,2.7575,2.7543,2.7516,2.7479,2.7461,2.7417,2.7393,2.7358,2.7345,2.7369,2.7272,2.7302,2.7261,2.7261,2.7239,2.724,2.7133,2.7226,2.7226,2.7227,2.7227,0,2.7722,2.7671,2.7654,2.7619,2.7562,2.7554,2.7497,2.748,2.7451,2.7411,2.7414,2.7375,2.7361,2.732,2.7309,2.7249,2.7239,2.7229,2.7226,2.7227,2.7228,2.7209,2.7213,2.7224,2.7224,2.7225,2.7225,0,2.7647,2.7634,2.7571,2.7538,2.7529,2.7488,2.7459,2.7424,2.741,2.7359,2.7347,2.7324,2.7276,2.726,2.7202,2.7194,2.7124,2.7127,2.7136,2.7135,2.7095,2.7098,2.6971,2.6953,2.7059,2.7059,2.7058,0,2.7593,2.7555,2.7518,2.7493,2.7473,2.7431,2.7404,2.7395,2.7366,2.7325,2.7294,2.7247,2.7209,2.7132,2.7109,2.7064,2.7065,2.7023,2.7058,2.706,2.7062,2.7064,2.7059,2.7016,2.7015,2.7014,2.7013,0,2.7499,2.7494,2.7456,2.7415,2.7384,2.7351,2.7319,2.7297,2.7283,2.725,2.7203,2.7173,2.7114,2.7067,2.7021,2.7,2.7003,2.7003,2.6991,2.6991,2.6997,2.6992,2.7116,2.7005,2.7006,2.7007,2.7007,2.7007,2.7431,2.7397,2.7366,2.7323,2.7299,2.7269,2.7235,2.7217,2.7178,2.713,2.7127,2.7074,2.7041,2.698,2.6957,2.6915,2.6927,2.691,2.6905,2.69,2.6897,2.7006,2.6907,2.6907,2.6907,2.6908,2.6908,0,2.7335,2.7316,2.7277,2.7233,2.7199,2.7208,2.7173,2.7144,2.7098,2.7067,2.703,2.6975,2.6929,2.6904,2.6858,2.6829,2.6829,2.6817,2.6818,2.6813,2.689,2.6904,2.6817,2.6817,2.6817,2.6817,2.6817,2.6817,2.7281,2.7224,2.7216,2.7146,2.7126,2.7076,2.7056,2.7028,2.7003,2.6942,2.6904,2.6889,2.686,2.6812,2.677,2.6763,2.6745,2.6732,2.6726,2.6798,2.6807,2.6816,2.6829,2.6728,2.6728,2.6652,2.6652,2.6651]}]]